This demonstration page uses our WeatherBlox Daily Observations layout. Learn more.

Left ArrowRight Arrow

Hourly Observations for June 20, 2021

Temp ( °F °C ) Dew Point ( °F °C ) Humidity (%) Winds ( mph kmh ) Pressure ( in mb ) Visibility ( mi km ) Precip ( " mm )
12:32 am 00:32 Cloudy with Light Rain 66 19 64 18 94 94 SE 12 19 29.64 1004 10 16 0.03 0.76
12:56 am 00:56 Mostly Cloudy with Light Rain 66 18.9 64 17.8 93 93 ESE 37 59 29.47 998 10 16 0.04 1.02
1:56 am 01:56 Clear 69 20.6 63 17.2 81 81 SW 5 7 29.67 1005 10 16 0.00 0.00
2:56 am 02:56 Clear 68 20 64 17.8 87 87 W 7 11 29.65 1004 10 16 0.00 0.00
3:56 am 03:56 Clear 67 19.4 63 17.2 87 87 W 6 9 29.61 1003 10 16 0.00 0.00
4:56 am 04:56 Clear 64 17.8 62 16.7 93 93 S 5 7 29.60 1002 10 16 0.00 0.00
5:56 am 05:56 Clear 64 17.8 61 16.1 90 90 WNW 6 9 29.61 1003 10 16 0.00 0.00
6:56 am 06:56 Sunny 64 17.8 62 16.7 93 93 S 7 11 29.62 1003 10 16 0.00 0.00
7:56 am 07:56 Sunny 67 19.4 64 17.8 91 91 undefined N/A 29.63 1003 10 16 0.00 0.00
8:56 am 08:56 Sunny 71 21.7 64 17.8 79 79 NNW 5 7 29.65 1004 10 16 0.00 0.00
9:56 am 09:56 Sunny 74 23.3 64 17.8 71 71 NNW 6 9 29.62 1003 10 16 0.00 0.00
10:56 am 10:56 Sunny 76 24.4 64 17.8 67 67 NW 6 9 29.62 1003 10 16 0.00 0.00
11:56 am 11:56 Sunny 80 26.7 63 17.2 56 56 N 15 24 29.62 1003 10 16 0.00 0.00
12:56 pm 12:56 Sunny 82 27.8 63 17.2 53 53 N 21 33 29.65 1004 10 16 0.00 0.00
1:56 pm 13:56 Sunny 85 29.4 60 15.6 43 43 N 23 37 29.65 1004 10 16 0.00 0.00
2:56 pm 14:56 Sunny 85 29.4 57 13.9 39 39 N 24 39 29.67 1005 10 16 0.00 0.00
3:56 pm 15:56 Sunny 83 28.3 55 12.8 38 38 N 23 37 29.71 1006 10 16 0.00 0.00
4:56 pm 16:56 Sunny 82 27.8 54 12.2 38 38 N 24 39 29.73 1007 10 16 0.00 0.00
5:56 pm 17:56 Sunny 79 26.1 55 12.8 44 44 N 22 35 29.76 1008 10 16 0.00 0.00
6:56 pm 18:56 Sunny 78 25.6 53 11.7 42 42 N 25 41 29.79 1009 10 16 0.00 0.00
7:56 pm 19:56 Sunny 74 23.3 53 11.7 48 48 N 21 33 29.82 1010 10 16 0.00 0.00
8:56 pm 20:56 Sunny 71 21.7 52 11.1 51 51 N 15 24 29.84 1010 10 16 0.00 0.00
9:56 pm 21:56 Clear 69 20.6 53 11.7 57 57 NNW 9 15 29.88 1012 10 16 0.00 0.00
10:56 pm 22:56 Clear 68 20 53 11.7 59 59 NNW 10 17 29.91 1013 10 16 0.00 0.00
11:56 pm 23:56 Clear 68 20 51 10.6 55 55 NNW 12 19 29.92 1013 10 16 0.00 0.00

Powered by AerisWeather